Simultaneous Nadir Overpasses (SNOs) Predictions

Prediction of SNOs between GOES-14 and AQUA Satellite Orbit:

Table of predicted SNOs for the next 14.0 days since TLE Epoch: 8/24/2024
Index Date Time (GOES-14) GOES-14 Lat,Lon AQUA Lat,Lon Distance(km) Time Diff (sec)
1 08/24/2024 09:42:55 0.02,-108.38 0.65,-111.41 344.45 80
2 08/26/2024 09:23:02 0.02,-108.36 -0.26,-107.20 133.22 80
3 08/26/2024 21:43:07 -0.02,-108.30 -0.83,-112.05 426.52 80
4 08/28/2024 21:28:33 -0.01,-108.29 0.12,-107.84 51.79 80
5 08/29/2024 09:48:30 0.00,-108.35 0.91,-112.67 490.83 80
6 08/31/2024 09:31:14 -0.01,-108.34 -0.01,-108.45 12.02 80
7 09/02/2024 09:11:16 -0.00,-108.33 -0.88,-104.22 468.44 80
8 09/02/2024 21:31:20 0.01,-108.27 -0.19,-109.07 90.96 80
9 09/04/2024 21:16:41 0.00,-108.27 0.73,-104.83 390.68 80
10 09/05/2024 09:36:36 -0.00,-108.34 0.30,-109.66 150.58 80
